Regional Weather Roundup
Issued by NWS Charleston, SC

Current Version | Previous Version | Graphics & Text | Print | Product List | Glossary On
Versions: 1 2 3 4 5 6 7 8 9 10 11 12 13 14 15 16 17 18 19 20 21 22 23 24 25 26 27 28 29 30 31 32 33 34 35 36 37 38 39 40 41 42 43 44 45 46 47 48 49 50
000
ASUS42 KCHS 060712
RWRCHS

REGIONAL WEATHER ROUNDUP
NATIONAL WEATHER SERVICE CHARLESTON SC
200 AM EST TUE DEC 06 2016

NOTE: "FAIR" INDICATES FEW OR NO CLOUDS BELOW 12,000 FEET WITH NO
SIGNIFICANT WEATHER AND/OR OBSTRUCTIONS TO VISIBILITY.

NOT ALL STATIONS ARE QUALITY CONTROLLED. USE DATA WITH CAUTION...
ESPECIALLY DEWPOINT OBSERVATIONS.

SCZ027-030-031-034>040-042>050-060800-
...SOUTHEAST SOUTH CAROLINA...

CITY           SKY/WX    TMP DP  RH WIND       PRES   REMARKS
N CHARLESTON   HVY RAIN  57  55  93 NE15      29.88F FOG
WATERFRONT PRK   N/A     59  59 100 N9        29.90R
MOUNT PLEASANT NOT AVBL
JOHNS ISLAND   LGT RAIN  59  59 100 N12       29.88F
PINOPOLIS      NOT AVBL
MONCKS CORNER  RAIN      54  54 100 NE9       29.92F
SUMMERVILLE    HVY RAIN N/A N/A N/A N7        29.91F
BEAUFORT MCAS  LGT RAIN  59  56  89 NW7       29.89R
BEAUFORT ARPT  LGT RAIN  59  57  94 N6        29.89R
HILTON HEAD IS LGT RAIN  59  59 100 VRB5G18   29.89R
WALTERBORO     RAIN      57 N/A N/A E5        29.91S
ALLENDALE      RAIN      55  55 100 VRB6G12   29.85F

...SOUTHERN MIDLANDS AND PEE DEE...

CITY           SKY/WX    TMP DP  RH WIND       PRES   REMARKS
GEORGETOWN     RAIN      55  54  94 NE12      29.93F
KINGSTREE      RAIN      52  50  93 NE3       29.96R
ORANGEBURG     RAIN      53  52  96 E9        29.88F
BARNWELL       NOT AVBL
AIKEN          RAIN      52  50  93 E10       29.88F
MANNING        RAIN      52  52 100 NE3       29.93F
COLUMBIA       HVY RAIN  54  51  90 E8        29.90S
SUMTER         LGT RAIN  52  51  94 E12       29.88F
FLORENCE       RAIN      52  51  97 E13       29.97F FOG
MYRTLE BEACH   CLOUDY    55  52  88 NE14      29.98F
N MYRTLE BEACH RAIN      50  50 100 NE14      29.96F FOG

$$

GAZ063-065-086>088-099>101-113>116-118-119-134>141-150-060800-
...SOUTHEAST GEORGIA...

CITY           SKY/WX    TMP DP  RH WIND       PRES   REMARKS
SAVANNAH ARPT  LGT RAIN  58  56  93 NE9       29.85F
HUNTER AAF     MOCLDY    59  59 100 NE6       29.82F
FORT STEWART   LGT RAIN  59  57  94 E5        29.80F
STATESBORO     NOT AVBL
SYLVANIA       HVY RAIN N/A N/A N/A E8        29.85F
CLAXTON        CLOUDY   N/A N/A N/A CALM      29.83F

...CSRA...CENTRAL AND FAR SOUTHEAST GEORGIA...

CITY           SKY/WX    TMP DP  RH WIND       PRES   REMARKS
THOMSON        CLOUDY    56  56 100 E6        29.88F
AUGUSTA-BUSH   RAIN      56  53  90 NE3       29.88R
AUGUSTA-DANIEL LGT RAIN  55  52  89 E6        29.87R
SWAINSBORO     RAIN      59  57  94 SE12G20   29.84F
VIDALIA        HVY RAIN  59  59 100 NE5       29.85S
EASTMAN        RAIN      59  59 100 SE5       29.81F
HAZLEHURST     HVY RAIN  59  59 100 NE5       29.82F
ALMA           RAIN      59  59 100 N7        29.81S FOG
WAYCROSS       HVY RAIN  71  71 100 CALM      29.78F
JESUP          LGT RAIN  63  63 100 CALM      29.81R
BAXLEY         HVY RAIN  59  59 100 N7G21     29.83R
BRUNSWICK      LGT RAIN  64  64 100 NE7       29.83F
SAINT SIMONS   LGT RAIN  64  63  96 N3        29.83F

$$

SCZ027-028-034-036>038-045-046-048>050-GAZ119-141-060800-
...LAKE AND SUPPLEMENTAL COASTAL OBSERVATIONS...

STATION/POSITION TIME  TEMP    WIND        PRES    WAVE   SWELL
                       AIR SEA DIR/SP/G            HT/PER HT/PER/DIR
                 (UTC) (F)     (DEG/KT/KT) (MB)    (FT/S) (FT/S/D)
WINYAH BAY       NOT AVBL
LAKE MURRAY      0620   53      60/  5/ 14 1012.5F
ACE BASIN NERRS  0545   58      40/  4     1012.0
FORT PULASKI     0648   60 62   20/  9/ 12 1011.1F
SAPELO ISLAND    0600   64      40/  5     1011.0

$$

ANZ835-935-AMZ111-154-330-350-352-354-370-450-454-472-060800-
...C-MAN AND BUOY OBSERVATIONS...

STATION/POSITION TIME  TEMP    WIND        PRES    WAVE   SWELL
                       AIR SEA DIR/SP/G            HT/PER HT/PER/DIR
                 (UTC) (F)     (DEG/KT/KT) (MB)    (FT/S) (FT/S/D)
BUOY 41004       0650   71 74   50/ 14/ 16 1011.1R   4/ 6   2/110/ 9
BUOY 41008       0650   66 65   70/ 10/ 12 1009.7F   3/ 5   2/150/ 6
FOLLY BEACH CMAN 0600   59      50/ 19/ 22 1013.3S
CAPERS NEARSHORE 0608   60 62   50/ 19/ 25 1012.5F
FRIPP NEARSHORE  0608   61 62   60/ 17/ 25 1011.5F


STATION/POSITION TIME  TEMP    WIND        PRES    WAVE   SWELL
                       AIR SEA DIR/SP/G            HT/PER HT/PER/DIR
                 (UTC) (F)     (DEG/KT/KT) (MB)    (FT/S) (FT/S/D)
5E ST. MARYS GA  0700      66                N/A     3/ 5
FRYING PAN BUOY  0650   66 74   30/ 19/ 25 1013.8S   6/ 6   2/ 80/11
BUOY 41025       0650   60 76   20/ 14/ 17 1017.1R   5/ 7   3/ 60/ 7
CAPE LOOKOUT NC  0600   51      20/ 12/ 15 1016.7F
BUOY 41002       0650   74 74  210/ 19/ 23 1013.8F   5/ 7   2/ 10/10
BUOY 41010       NOT AVBL
ST AUGUSTINE FL  0700   74 68  190/ 11/ 14 1011.0F


$$




USA.gov is the U.S. government's official web portal to all federal, state and local government web resources and services.